TimePST,TemperatureF,Dew PointF,Humidity,Sea Level PressureIn,VisibilityMPH,Wind Direction,Wind SpeedMPH,Gust SpeedMPH,PrecipitationIn,Events,Conditions,WindDirDegrees,DateUTC
12:15 AM,24.8,15.8,69,30.20,10.0,NNE,4.6,-,N/A,,Scattered Clouds,30,2013-12-06 08:15:00
12:35 AM,24.8,15.8,69,30.19,10.0,NE,4.6,-,N/A,,Mostly Cloudy,40,2013-12-06 08:35:00
12:55 AM,24.8,14.0,64,30.19,10.0,NNE,4.6,-,N/A,,Scattered Clouds,30,2013-12-06 08:55:00
1:15 AM,26.6,15.8,64,30.19,10.0,NE,5.8,-,N/A,,Mostly Cloudy,40,2013-12-06 09:15:00
1:35 AM,26.6,14.0,59,30.19,10.0,NNE,8.1,-,N/A,,Overcast,30,2013-12-06 09:35:00
1:55 AM,26.6,14.0,59,30.19,10.0,NNE,6.9,-,N/A,,Overcast,20,2013-12-06 09:55:00
2:15 AM,24.8,15.8,69,30.20,10.0,NNE,5.8,-,N/A,,Mostly Cloudy,20,2013-12-06 10:15:00
2:35 AM,26.6,15.8,64,30.20,10.0,NNE,6.9,-,N/A,,Mostly Cloudy,30,2013-12-06 10:35:00
2:55 AM,26.6,10.4,51,30.20,10.0,ENE,4.6,-,N/A,,Scattered Clouds,60,2013-12-06 10:55:00
3:15 AM,26.6,10.4,51,30.19,10.0,NE,6.9,-,N/A,,Mostly Cloudy,40,2013-12-06 11:15:00
3:35 AM,26.6,10.4,51,30.18,10.0,NE,9.2,-,N/A,,Overcast,50,2013-12-06 11:35:00
3:55 AM,26.6,10.4,51,30.18,10.0,ENE,8.1,-,N/A,,Mostly Cloudy,60,2013-12-06 11:55:00
4:15 AM,26.6,8.6,47,30.18,10.0,ENE,4.6,-,N/A,,Partly Cloudy,60,2013-12-06 12:15:00
4:35 AM,26.6,8.6,47,30.18,10.0,NNE,6.9,-,N/A,,Clear,20,2013-12-06 12:35:00
4:55 AM,26.6,8.6,47,30.19,10.0,NE,8.1,-,N/A,,Clear,40,2013-12-06 12:55:00
5:15 AM,26.6,8.6,47,30.19,10.0,ENE,8.1,-,N/A,,Clear,60,2013-12-06 13:15:00
5:35 AM,26.6,8.6,47,30.19,10.0,NE,4.6,-,N/A,,Clear,50,2013-12-06 13:35:00
5:55 AM,26.6,8.6,47,30.19,10.0,NNE,3.5,-,N/A,,Clear,30,2013-12-06 13:55:00
6:15 AM,26.6,8.6,47,30.19,10.0,ENE,4.6,-,N/A,,Clear,60,2013-12-06 14:15:00
6:35 AM,24.8,8.6,50,30.18,10.0,NE,4.6,-,N/A,,Clear,40,2013-12-06 14:35:00
6:55 AM,26.6,8.6,47,30.18,10.0,NE,9.2,-,N/A,,Clear,40,2013-12-06 14:55:00
7:15 AM,26.6,6.8,43,30.18,10.0,NE,8.1,-,N/A,,Clear,40,2013-12-06 15:15:00
7:35 AM,26.6,6.8,43,30.19,10.0,NE,6.9,-,N/A,,Clear,40,2013-12-06 15:35:00
7:55 AM,26.6,8.6,47,30.19,10.0,NNE,5.8,-,N/A,,Clear,30,2013-12-06 15:55:00
8:15 AM,26.6,10.4,51,30.19,10.0,NNE,6.9,-,N/A,,Clear,30,2013-12-06 16:15:00
8:35 AM,24.8,10.4,54,30.20,10.0,North,6.9,-,N/A,,Clear,10,2013-12-06 16:35:00
8:55 AM,24.8,10.4,54,30.20,10.0,NNE,8.1,-,N/A,,Clear,20,2013-12-06 16:55:00
9:15 AM,26.6,10.4,51,30.19,10.0,North,8.1,-,N/A,,Clear,10,2013-12-06 17:15:00
9:35 AM,28.4,10.4,47,30.19,10.0,North,9.2,-,N/A,,Clear,10,2013-12-06 17:35:00
9:55 AM,28.4,10.4,47,30.19,10.0,North,12.7,18.4,N/A,,Clear,10,2013-12-06 17:55:00
10:15 AM,28.4,8.6,43,30.20,10.0,North,12.7,19.6,N/A,,Clear,10,2013-12-06 18:15:00
10:35 AM,30.2,10.4,44,30.19,10.0,North,13.8,-,N/A,,Clear,10,2013-12-06 18:35:00
10:55 AM,30.2,10.4,44,30.19,10.0,NNE,12.7,18.4,N/A,,Clear,30,2013-12-06 18:55:00
11:15 AM,30.2,8.6,40,30.18,10.0,NNE,12.7,18.4,N/A,,Clear,20,2013-12-06 19:15:00
11:35 AM,30.2,8.6,40,30.18,10.0,NNE,11.5,19.6,N/A,,Clear,20,2013-12-06 19:35:00
11:55 AM,30.2,8.6,40,30.16,10.0,NNE,16.1,23.0,N/A,,Clear,20,2013-12-06 19:55:00
12:15 PM,30.2,8.6,40,30.17,10.0,NNE,16.1,24.2,N/A,,Clear,20,2013-12-06 20:15:00
12:35 PM,30.2,8.6,40,30.16,10.0,North,13.8,20.7,N/A,,Clear,360,2013-12-06 20:35:00
12:55 PM,30.2,8.6,40,30.15,10.0,NNE,17.3,21.9,N/A,,Clear,20,2013-12-06 20:55:00
1:15 PM,30.2,8.6,40,30.16,10.0,North,16.1,24.2,N/A,,Clear,10,2013-12-06 21:15:00
1:35 PM,30.2,6.8,37,30.15,10.0,NNE,12.7,20.7,N/A,,Clear,30,2013-12-06 21:35:00
1:55 PM,30.2,8.6,40,30.14,10.0,NNE,12.7,-,N/A,,Clear,30,2013-12-06 21:55:00
2:15 PM,30.2,6.8,37,30.14,10.0,North,15.0,20.7,N/A,,Clear,10,2013-12-06 22:15:00
2:35 PM,30.2,6.8,37,30.14,10.0,NNE,17.3,21.9,N/A,,Partly Cloudy,20,2013-12-06 22:35:00
2:55 PM,30.2,6.8,37,30.14,10.0,North,16.1,23.0,N/A,,Partly Cloudy,10,2013-12-06 22:55:00
3:15 PM,30.2,5.0,34,30.15,10.0,NNE,18.4,24.2,N/A,,Partly Cloudy,20,2013-12-06 23:15:00
3:35 PM,28.4,5.0,37,30.14,10.0,North,18.4,26.5,N/A,,Clear,10,2013-12-06 23:35:00
3:55 PM,28.4,5.0,37,30.14,10.0,North,16.1,21.9,N/A,,Clear,10,2013-12-06 23:55:00
4:15 PM,28.4,5.0,37,30.15,10.0,NNE,16.1,23.0,N/A,,Clear,20,2013-12-07 00:15:00
4:35 PM,28.4,5.0,37,30.16,10.0,NNE,13.8,20.7,N/A,,Clear,20,2013-12-07 00:35:00
4:55 PM,26.6,6.8,43,30.16,10.0,North,9.2,17.3,N/A,,Clear,10,2013-12-07 00:55:00
5:15 PM,26.6,6.8,43,30.16,10.0,North,6.9,-,N/A,,Clear,360,2013-12-07 01:15:00
5:35 PM,26.6,6.8,43,30.16,10.0,North,9.2,-,N/A,,Clear,10,2013-12-07 01:35:00
5:55 PM,26.6,6.8,43,30.16,10.0,North,9.2,-,N/A,,Partly Cloudy,10,2013-12-07 01:55:00
6:15 PM,24.8,8.6,50,30.17,10.0,North,8.1,-,N/A,,Partly Cloudy,10,2013-12-07 02:15:00
6:35 PM,26.6,8.6,47,30.17,10.0,North,10.4,-,N/A,,Clear,10,2013-12-07 02:35:00
6:55 PM,26.6,8.6,47,30.18,10.0,North,9.2,-,N/A,,Clear,10,2013-12-07 02:55:00
7:15 PM,24.8,8.6,50,30.19,10.0,NNE,9.2,-,N/A,,Clear,20,2013-12-07 03:15:00
7:35 PM,24.8,6.8,46,30.19,10.0,North,8.1,-,N/A,,Clear,10,2013-12-07 03:35:00
7:55 PM,24.8,6.8,46,30.20,10.0,North,9.2,-,N/A,,Clear,10,2013-12-07 03:55:00
8:15 PM,24.8,6.8,46,30.20,10.0,NNE,11.5,-,N/A,,Clear,20,2013-12-07 04:15:00
8:35 PM,24.8,6.8,46,30.21,10.0,NNE,10.4,-,N/A,,Clear,20,2013-12-07 04:35:00
8:55 PM,23.0,6.8,50,30.22,10.0,NNE,6.9,-,N/A,,Clear,20,2013-12-07 04:55:00
9:15 PM,23.0,8.6,54,30.22,10.0,North,6.9,-,N/A,,Clear,10,2013-12-07 05:15:00
9:35 PM,23.0,8.6,54,30.22,10.0,North,9.2,-,N/A,,Clear,10,2013-12-07 05:35:00
9:55 PM,23.0,6.8,50,30.22,10.0,North,8.1,-,N/A,,Clear,10,2013-12-07 05:55:00
10:15 PM,23.0,6.8,50,30.23,10.0,NNE,9.2,-,N/A,,Clear,20,2013-12-07 06:15:00
10:35 PM,23.0,6.8,50,30.23,10.0,North,8.1,-,N/A,,Clear,10,2013-12-07 06:35:00
10:55 PM,23.0,6.8,50,30.23,10.0,North,6.9,-,N/A,,Clear,10,2013-12-07 06:55:00
11:15 PM,23.0,6.8,50,30.24,10.0,North,9.2,-,N/A,,Clear,10,2013-12-07 07:15:00
11:35 PM,23.0,6.8,50,30.24,10.0,North,8.1,-,N/A,,Clear,10,2013-12-07 07:35:00
11:55 PM,23.0,10.4,59,30.24,10.0,North,9.2,-,N/A,,Clear,10,2013-12-07 07:55:00